Weather History for Ashland, WI

Change the Weather History Date:

Saturday, December 1, 2012

  Actual Average Record
Temperature  
Mean Temperature 36 °F -  
Max Temperature 39 °F 30 °F 59 °F (1962)
Min Temperature 33 °F 15 °F -9 °F (1978)
Degree Days  
Heating Degree Days 29    
Moisture  
Dew Point 34 °F    
Average Humidity 91    
Maximum Humidity 100    
Minimum Humidity 81    
Precipitation  
Precipitation 0.00 in - - ()
Sea Level Pressure  
Sea Level Pressure 29.85 in    
Wind  
Wind Speed 3 mph (SSW)    
Max Wind Speed 8 mph    
Max Gust Speed -    
Visibility 3 miles    
Events Fog    
Averages and records for this station are not official NWS values.
T = Trace of Precipitation, MM = Missing Value Source: NWS Daily Summary

Daily Weather History Graph

Daily Weather History Graph

Search for Another Location

Airport:

Trip Planner

Search our weather history database for the weather conditions in past years. The results will help you decide how hot, cold, wet, or windy it might be!

Date:

Astronomy

Dec. 01, 2012 Rise Set
Actual Time 7:27 AM CST 4:17 PM CST
Civil Twilight 6:53 AM CST 4:52 PM CST
Nautical Twilight 6:15 AM CST 5:30 PM CST
Astronomical Twilight 5:39 AM CST 6:06 PM CST
Moon 7:11 PM CST (12/1) 9:38 AM CST (12/1)
Length of Visible Light 9h 58m
Length of Day
8h 50m
Waning Gibbous, 91% of the Moon is Illuminated
Dec 1
Waning Gibbous
Dec 6
Last Quarter
Dec 13
New
Dec 19
First Quarter
Dec 28
Full

Hourly Weather History & Observations

Time (CST) Temp. Windchill Dew Point Humidity Pressure Visibility Wind Dir Wind Speed Gust Speed Precip Events Conditions
12:53 AM 33.1 °F 30.0 °F 28.0 °F 82% 30.13 in 10.0 mi Variable 3.5 mph - N/A   Overcast
1:53 AM 33.1 °F 30.0 °F 28.9 °F 85% 30.12 in 9.0 mi South 3.5 mph - N/A   Overcast
3:53 AM 33.1 °F 30.0 °F 28.9 °F 85% 30.06 in 10.0 mi South 3.5 mph - N/A   Overcast
4:53 AM 33.1 °F 30.0 °F 28.9 °F 85% 30.04 in 9.0 mi South 3.5 mph - N/A   Overcast
5:53 AM 34.0 °F 28.8 °F 30.0 °F 85% 30.01 in 9.0 mi South 5.8 mph - N/A   Overcast
6:53 AM 34.0 °F 29.8 °F 30.0 °F 85% 29.99 in 7.0 mi South 4.6 mph - N/A   Overcast
7:53 AM 35.1 °F 30.1 °F 30.9 °F 85% 29.96 in 6.0 mi South 5.8 mph - N/A   Overcast
8:53 AM 35.1 °F 32.2 °F 30.9 °F 85% 29.95 in 6.0 mi South 3.5 mph - N/A   Overcast
9:53 AM 36.0 °F 31.1 °F 32.0 °F 86% 29.92 in 5.0 mi South 5.8 mph - N/A   Overcast
10:53 AM 37.0 °F 32.4 °F 33.1 °F 86% 29.90 in 5.0 mi South 5.8 mph - N/A   Overcast
11:53 AM 37.9 °F 35.5 °F 33.1 °F 83% 29.85 in 4.0 mi South 3.5 mph - N/A   Haze
1:10 PM 39.2 °F 34.2 °F 33.8 °F 81% 29.75 in 4.0 mi South 6.9 mph - N/A   Haze
1:53 PM 39.0 °F 35.7 °F 35.1 °F 86% 29.76 in 4.0 mi SSW 4.6 mph - N/A   Overcast
2:53 PM 39.9 °F 34.5 °F 35.1 °F 83% 29.77 in 4.0 mi SW 8.1 mph - N/A   Haze
3:32 PM 39.2 °F 35.9 °F 35.6 °F 87% 29.75 in 4.0 mi WSW 4.6 mph - N/A   Haze
3:53 PM 39.0 °F - 35.1 °F 86% 29.78 in 3.0 mi Calm Calm - N/A   Overcast
4:39 PM 37.4 °F 34.9 °F 35.6 °F 93% 29.77 in 2.0 mi WSW 3.5 mph - N/A   Overcast
4:51 PM 37.4 °F - 35.6 °F 93% 29.77 in 1.5 mi Calm Calm - N/A   Overcast
4:53 PM 37.9 °F - 36.0 °F 93% 29.79 in 1.5 mi Calm Calm - N/A   Overcast
5:12 PM 37.4 °F - 35.6 °F 93% 29.77 in 0.5 mi Calm Calm - N/A Fog Fog
5:27 PM 37.4 °F - 35.6 °F 93% 29.77 in 0.2 mi Calm Calm - N/A Fog Fog
5:53 PM 37.0 °F - 36.0 °F 96% 29.81 in 0.2 mi Calm Calm - N/A Fog Fog
6:02 PM 37.4 °F - 35.6 °F 93% 29.78 in 0.5 mi Calm Calm - N/A Fog Fog
6:35 PM 37.4 °F - 35.6 °F 93% 29.78 in 0.2 mi Calm Calm - N/A Fog Fog
6:53 PM 37.0 °F - 36.0 °F 96% 29.82 in 0.2 mi Calm Calm - N/A Fog Fog
7:01 PM 35.6 °F - 35.6 °F 100% 29.79 in 0.5 mi Calm Calm - N/A Fog Fog
7:20 PM 37.4 °F - 35.6 °F 93% 29.79 in 0.2 mi Calm Calm - N/A Fog Fog
7:53 PM 36.0 °F - 36.0 °F 100% 29.81 in 0.2 mi Calm Calm - N/A Fog Fog
8:53 PM 36.0 °F - 34.0 °F 93% 29.81 in 0.2 mi Calm Calm - N/A Fog Fog
9:46 PM 35.6 °F 32.8 °F 35.6 °F 100% 29.79 in 0.2 mi WSW 3.5 mph - N/A Fog Fog
9:53 PM 36.0 °F 32.1 °F 36.0 °F 100% 29.82 in 0.2 mi WSW 4.6 mph - N/A Fog Fog
10:53 PM 36.0 °F 31.1 °F 35.1 °F 97% 29.84 in 0.5 mi West 5.8 mph - N/A Fog Fog
11:12 PM 35.6 °F 32.8 °F 35.6 °F 100% 29.81 in 1.2 mi West 3.5 mph - N/A   Overcast
11:50 PM 35.6 °F - 35.6 °F 100% 29.81 in 1.5 mi Calm Calm - N/A   Overcast
11:53 PM 36.0 °F 32.1 °F 35.1 °F 97% 29.84 in 1.2 mi West 4.6 mph - N/A   Overcast